Tracking 19242 objects as of 15-Aug-2018
HD Live streaming from Space Station
objects crossing your sky now

MARISAT 1

Track MARISAT 1 now!
MARISAT 1 is classified as:


NORAD ID: 8697
Int'l Code: 1976-017A
Perigee: 36,053.9 km
Apogee: 36,135.3 km
Inclination: 12.0 °
Period: 1,451.5 minutes
Semi major axis: 42465 km
RCS: 5.8066 m2 (large)
Launch date: February 19, 1976
Source: United States (US)
Launch site: AIR FORCE EASTERN TEST RANGE (AFETR)
aabbcc
Your satellite tracking list
Your tracking list is empty




NASA's NSSDC Master Catalog

Two Line Element Set (TLE):
1 08697U 76017A   18226.51415762 -.00000046  00000-0  00000+0 0  9991
2 08697  12.0414 322.2234 0009581 133.6530 251.2865  0.99208109153675
Source of the keplerian elements: AFSPC